Regional Weather Roundup
Issued by NWS

Home | Current Version | Previous Version | Graphics & Text | Print | Product List | Glossary On
Versions: 1 2 3 4 5 6 7 8 9 10 11 12 13 14 15 16 17 18 19 20 21 22 23 24 25 26 27 28 29 30 31 32 33 34 35 36 37 38 39 40 41 42 43 44 45 46 47 48 49 50
000
ASUS43 KDMX 252006
RWRIA

WEATHER ROUNDUP FOR IOWA
NATIONAL WEATHER SERVICE DES MOINES IA
200 PM CST SAT FEB 25 2017

NOTE: "FAIR" INDICATES FEW OR NO CLOUDS BELOW 12,000 FEET WITH NO
SIGNIFICANT WEATHER AND/OR OBSTRUCTIONS TO VISIBILITY.

* - THESE STATIONS ARE NOT NWS STATIONS...THUS NOT UNDER NWS
QUALITY CONTROL.  THEY ALSO DO NOT REPORT WEATHER SUCH
AS PRECIPITATION OR FOG.

IAZ001>003-012>014-020>022-031>034-043>046-252100-
   NORTHWEST IOWA

CITY           SKY/WX    TMP DP  RH WIND       PRES   REMARKS
CARROLL *      CLOUDY    28  19  69 SW9       30.04F WCI  20
CHEROKEE *     CLOUDY    26  16  65 SW9       30.01F WCI  17
DENISON *      CLOUDY    27  14  59 SW12      30.02F WCI  16
LE MARS *      CLOUDY    28  16  59 S13       30.01F WCI  18
SHELDON *      CLOUDY    27  21  80 SW15      29.96F WCI  15
SIOUX CITY     PTSUNNY   29  15  56 SW12      30.02F WCI  19
SPENCER        CLOUDY    25  18  74 SW14      29.99F WCI  13
STORM LAKE *   HAZE      23  16  74 SW13      30.00F VSB 3/4 WCI  11
$$

IAZ055>058-069>071-079>083-090>094-252100-
   SOUTHWEST IOWA

CITY           SKY/WX    TMP DP  RH WIND       PRES   REMARKS
ATLANTIC *     MOSUNNY   28  18  64 SW10      30.07F WCI  19
AUDUBON *      CLOUDY    27  18  69 SW9       30.05F WCI  17
CLARINDA *     CLOUDY    32  19  59 W8        30.13F WCI  25
COUNCIL BLFS * MOSUNNY   28  16  59 SW10      30.06F WCI  19
CRESTON *      SUNNY     30  19  64 SW8G15    30.08F WCI  23
HARLAN  *      CLOUDY    27  18  69 SW10      30.09F WCI  17
LAMONI         SUNNY     32  18  56 W9        30.08F WCI  24
RED OAK *      MOSUNNY   32  19  59 SW9       30.09F WCI  24
SHENANDOAH *   SUNNY     32  21  64 SW8       30.11F WCI  25
$$

IAZ047>049-059>061-072>074-084-252100-
   CENTRAL IOWA

CITY           SKY/WX    TMP DP  RH WIND       PRES   REMARKS
AMES           SUNNY     26  19  74 W16       30.06S WCI  14
ANKENY *       SUNNY     28  18  64 W13       30.08F WCI  18
BOONE *        PTSUNNY   25  14  63 W10       30.04F WCI  15
CHARITON *     CLOUDY    30  16  55 NW12      30.07F WCI  21
DES MOINES     CLOUDY    30  13  49 NW7       30.07F WCI  23
GRINNELL*      SUNNY     27  17  64 W12G18    30.05S WCI  17
KNOXVILLE *    SUNNY     30  14  51 W13       30.06S WCI  20
MARSHALLTOWN   SUNNY     25  16  68 W12       30.03S WCI  14
NEWTON *       SUNNY     27  16  63 W12       30.05S WCI  16
PELLA *        SUNNY     31  13  48 NW8       30.08S WCI  24
PERRY *        CLOUDY    27  15  60 W9        30.07S WCI  18
$$

IAZ004>006-015-016-023>025-035-036-252100-
   NORTH CENTRAL IOWA

CITY           SKY/WX    TMP DP  RH WIND       PRES   REMARKS
ALGONA *       LGT SNOW  25  18  74 SW13      30.00F WCI  13
CLARION *      SUNNY     23  16  74 W16       30.03S WCI  10
ESTHERVILLE    CLOUDY    24  18  77 SW14      29.97F WCI  12
FORT DODGE *   CLOUDY    25  14  63 W9        30.04F WCI  15
MASON CITY     SUNNY     22  13  68 W12       30.00F WCI  10
FOREST CITY *    N/A     28  14  54 W7        29.99S WCI  21
WEBSTER CITY * PTSUNNY   23  14  68 SW12      30.02S WCI  12
IOWA FALLS *     N/A     26  16  66 W13       30.03F WCI  14
$$

IAZ007>011-017>019-026>030-037>042-050>054-066-252100-
   NORTHEAST IOWA

CITY           SKY/WX    TMP DP  RH WIND       PRES   REMARKS
CEDAR RAPIDS   SUNNY     26  18  71 NW18      30.01R WCI  13
CHARLES CITY * SUNNY     23  12  63 W13       29.99F WCI  11
CLINTON *      SUNNY     28  19  69 W21G29    29.97R WCI  15
DECORAH *      SUNNY     23  10  58 NW10      29.94S WCI  12
DUBUQUE        SUNNY     23  12  62 NW20G26   29.94S WCI   8
MONTICELLO *   SUNNY     27  16  63 NW16G22   29.98R WCI  14
OELWEIN *      SUNNY     25  14  63 NW16      29.98S WCI  12
WATERLOO       SUNNY     24  13  62 W12G18    30.00F WCI  13
$$

IAZ064-065-067-068-078-252100-
   EAST CENTRAL IOWA

CITY           SKY/WX    TMP DP  RH WIND       PRES   REMARKS
DAVENPORT      SUNNY     27  17  66 NW20      29.99R WCI  13
IOWA CITY      SUNNY     30  16  56 W14       30.04S WCI  19
MUSCATINE *    SUNNY     30  18  59 W16G22    30.04S WCI  19
QUAD CITIES    SUNNY     30  17  58 W16       29.99S WCI  19
$$

IAZ062-063-075>077-085>089-095>099-252100-
   SOUTHEAST IOWA

CITY           SKY/WX    TMP DP  RH WIND       PRES   REMARKS
BURLINGTON     SUNNY     30  16  56 NW13G23   30.04R WCI  20
FAIRFIELD *    CLOUDY    30  16  55 W16G22    30.05S WCI  19
KEOKUK *       PTSUNNY   34  10  37 NW15G23   30.06R WCI  24
CENTERVILLE *    N/A     32  18  55 W9        30.09S WCI  24
OTTUMWA        SUNNY     31  15  52 W13       30.06S WCI  21
WASHINGTON *   SUNNY     28  18  64 W18G24    30.05S WCI  16
$$

ABBREVIATIONS USED IN REMARKS
   TC - TEMPERATURES IN CELSIUS
  WCI - WIND CHILL INDEX
   HX - HEAT INDEX
  VSB - VISIBILITY
$$





USA.gov is the U.S. government's official web portal to all federal, state and local government web resources and services.